Hourly Weather Roundup
Issued by NWS Central Illinois

Home | Current Version | Previous Version | Text Only | Print | Product List | Glossary On
Versions: 1 2 3 4 5 6 7 8 9 10 11 12 13 14 15 16 17 18 19 20 21 22 23 24 25 26 27 28 29 30 31 32 33 34 35 36 37 38 39 40 41 42 43 44 45 46 47 48 49 50
000
NZUS43 KILX 082110
HWRILX

AREA WEATHER ROUNDUP
NATIONAL WEATHER SERVICE, LINCOLN IL
300 PM CST THU DEC 08 2016


CITY           SKY/WX    TMP DP  RH WIND       PRES   REMARKS
BLOOMINGTON    CLOUDY    20  13  74 W22       30.41R WCI   3
CHAMPAIGN      CLOUDY    22  12  65 W20       30.42R WCI   7
DANVILLE       FLURRIES  22  15  72 W14G20    30.37R WCI   9
DECATUR        CLOUDY    22  11  62 NW16G23   30.44R WCI   8
EFFINGHAM      CLOUDY    26  17  67 W16G23    30.47R WCI  14
FLORA          PTSUNNY   29  16  56 W16       30.47R WCI  18
GALESBURG      FLURRIES  20  13  73 W17G24    30.45R WCI   6
JACKSONVILLE   CLOUDY    24  13  60 W17       30.48R WCI  11
LACON          CLOUDY    22  13  69 W15G21    30.43R WCI   8
LAWRENCEVILLE  PTSUNNY   28  15  58 W18       30.45R WCI  15
LITCHFIELD     MOSUNNY   26  15  63 NW13G22   30.47R WCI  14
$$


CITY           SKY/WX    TMP DP  RH WIND       PRES   REMARKS
LINCOLN        CLOUDY    23  13  65 NW9G21    30.46R WCI  13
MACOMB         CLOUDY    22  12  67 W20       30.50R WCI   6
MATTOON        CLOUDY    23  12  62 NW20      30.43R WCI   8
MT CARMEL AP   MOSUNNY   28  17  61 NW14      30.44R WCI  17
OLNEY-NOBLE AP MOSUNNY   28  16  59 W14G23    30.46R WCI  17
PARIS          CLOUDY    23  16  74 W14       30.42R WCI  11
PEORIA         CLOUDY    20  11  68 W14G23    30.45R WCI   7
PONTIAC        MIX PCPN  22  15  75 W23       30.40R WCI   6
RANTOUL        CLOUDY    24  15  71 W16       30.40R WCI  10
SPRINGFIELD    CLOUDY    25  14  63 W12       30.47R WCI  14
TAYLORVILLE    CLOUDY    24  14  66 NW16      30.47R WCI  10
$$

...REGIONAL REPORTS...


CITY           SKY/WX    TMP DP  RH WIND       PRES   REMARKS
CHICAGO O`HARE FLURRIES  21  13  71 W14G25    30.32R WCI   8
KANKAKEE       CLOUDY    21  13  72 W18G28    30.37S WCI   6
MOLINE         CLOUDY    22  12  65 W21G26    30.44R WCI   6
MOUNT STERLING CLOUDY    23  11  61 NW15      30.47R WCI  10
MOUNT VERNON   NOT AVBL
PITTSFIELD     PTSUNNY   26  13  58 NW10      30.50R WCI  16
QUINCY         PTSUNNY   25  12  58 NW18      30.49R WCI  11
ROCKFORD       FLURRIES  22  14  71 W15       30.37R WCI   9
$$


CITY           SKY/WX    TMP DP  RH WIND       PRES   REMARKS
BURLINGTON     CLOUDY    21  11  65 NW14G20   30.48R WCI   8
CEDAR RAPIDS   CLOUDY    20  16  84 W17G26    30.44R WCI   5
DES MOINES     MOSUNNY   25  10  53 NW20      30.51R WCI  11
KIRKSVILLE     SUNNY     25  10  53 W17       30.52R WCI  12
OTTUMWA        PTSUNNY   23   9  55 NW16G25   30.50R WCI  10
ST LOUIS       MOSUNNY   30  11  45 W21G26    30.49R WCI  17
$$


CITY           SKY/WX    TMP DP  RH WIND       PRES   REMARKS
TERRE HAUTE    CLOUDY    24  13  62 W12G22    30.42R WCI  13
EVANSVILLE     MOSUNNY   31  15  52 W12G22    30.45R WCI  22
INDIANAPOLIS   FLURRIES  23  14  68 W17       30.36R WCI   9
LAFAYETTE      CLOUDY    21  13  71 W14       30.37R WCI   8
MADISON        FLURRIES  22  15  75 NW10      30.31R WCI  11
MILWAUKEE      PTSUNNY   26  14  60 W22G30    30.26R WCI  12
$$






USA.gov is the U.S. government's official web portal to all federal, state and local government web resources and services.